This demonstration page uses our WeatherBlox Daily Observations layout. Learn more.

Left ArrowRight Arrow

Hourly Observations for April 20, 2021

Temp ( °F °C ) Dew Point ( °F °C ) Humidity (%) Winds ( mph kmh ) Pressure ( in mb ) Visibility ( mi km ) Precip ( " mm )
12:15 am 00:15 Cloudy with Light Snow 29 -1.6 28 -2.5 94 94 N 6 9 30.32 1027 3 4 0.00 0.00
12:35 am 00:35 Cloudy with Light Snow 29 -1.7 27 -2.6 94 94 NNW 6 9 30.31 1026 5 8 0.01 0.25
12:55 am 00:55 Cloudy 29 -1.8 27 -2.7 94 94 Calm 30.31 1027 10 16 0.01 0.25
1:15 am 01:15 Cloudy 28 -2 27 -2.7 95 95 WNW 6 9 30.32 1027 10 16 0.00 0.00
1:35 am 01:35 Cloudy 28 -2.1 27 -3 94 94 W 7 11 30.33 1027 10 16 0.00 0.00
1:55 am 01:55 Partly Cloudy 27 -2.6 26 -3.5 94 94 W 7 11 30.33 1027 10 16 0.01 0.25
2:15 am 02:15 Clear 27 -2.8 25 -3.9 92 92 WNW 6 9 30.33 1027 10 16 0.00 0.00
2:35 am 02:35 Clear 27 -2.8 25 -4 92 92 WNW 8 13 30.32 1027 10 16 0.00 0.00
2:55 am 02:55 Clear 28 -2.5 25 -3.8 91 91 WNW 6 9 30.32 1027 10 16 0.00 0.00
3:15 am 03:15 Clear 28 -2.3 25 -3.8 90 90 WNW 6 9 30.33 1027 10 16 0.00 0.00
3:35 am 03:35 Clear 28 -2.1 25 -3.8 88 88 WNW 8 13 30.33 1027 10 16 0.00 0.00
3:55 am 03:55 Clear 28 -2.3 25 -4 88 88 WNW 7 11 30.33 1027 10 16 0.00 0.00
4:15 am 04:15 Clear 28 -2.5 24 -4.2 88 88 WNW 7 11 30.33 1027 10 16 0.00 0.00
4:35 am 04:35 Clear 27 -2.8 24 -4.6 88 88 WNW 6 9 30.34 1028 10 16 0.00 0.00
4:55 am 04:55 Clear 26 -3.5 23 -5.2 88 88 WNW 5 7 30.35 1028 10 16 0.00 0.00
5:15 am 05:15 Clear 26 -3.5 23 -5.1 89 89 WNW 7 11 30.35 1028 10 16 0.00 0.00
5:35 am 05:35 Clear 24 -4.6 21 -6.2 89 89 WNW 7 11 30.36 1028 10 16 0.00 0.00
5:55 am 05:55 Clear 24 -4.6 21 -6 90 90 WNW 7 11 30.36 1028 10 16 0.00 0.00
6:15 am 06:15 Clear 22 -5.4 20 -6.7 91 91 WNW 7 11 30.37 1028 10 16 0.00 0.00
6:35 am 06:35 Clear 22 -5.6 19 -7 90 90 WNW 7 11 30.38 1029 10 16 0.00 0.00
6:55 am 06:55 Sunny 21 -6.1 19 -7.4 91 91 WNW 6 9 30.39 1029 10 16 0.00 0.00
7:15 am 07:15 Sunny 20 -6.7 18 -8 91 91 WNW 6 9 30.39 1029 10 16 0.00 0.00
7:35 am 07:35 Sunny 20 -6.4 18 -7.7 91 91 WNW 6 9 30.40 1029 10 16 0.00 0.00
7:55 am 07:55 Sunny 22 -5.5 19 -7 89 89 WNW 6 9 30.39 1029 10 16 0.00 0.00
8:15 am 08:15 Sunny 24 -4.2 21 -6 87 87 WNW 7 11 30.38 1029 10 16 0.00 0.00
8:35 am 08:35 Sunny 25 -3.8 21 -6 85 85 WNW 7 11 30.37 1029 10 16 0.00 0.00
8:55 am 08:55 Sunny 27 -3 22 -5.5 83 83 WNW 8 13 30.36 1028 10 16 0.00 0.00
9:15 am 09:15 Sunny 28 -2.2 23 -5 81 81 WNW 7 11 30.35 1028 10 16 0.00 0.00
9:35 am 09:35 Sunny 30 -1.2 24 -4.4 79 79 WNW 6 9 30.34 1027 10 16 0.00 0.00
9:55 am 09:55 Partly Cloudy 30 -1 24 -4.2 79 79 W 3 6 30.34 1027 10 16 0.00 0.00
10:15 am 10:15 Partly Cloudy 32 0.1 26 -3.6 76 76 WNW 5 7 30.32 1027 10 16 0.00 0.00
10:35 am 10:35 Sunny 33 0.5 26 -3.1 77 77 W 6 9 30.32 1027 10 16 0.00 0.00
10:55 am 10:55 Sunny 35 1.5 26 -3.5 70 70 W 6 9 30.31 1026 10 16 0.00 0.00
11:15 am 11:15 Sunny 36 2 27 -3 70 70 WNW 8 13 30.31 1026 10 16 0.00 0.00
11:35 am 11:35 Sunny 37 2.6 29 -1.8 73 73 W 9 15 30.29 1026 10 16 0.00 0.00
11:55 am 11:55 Sunny 38 3.3 31 -0.8 75 75 WNW 9 15 30.28 1026 10 16 0.00 0.00
12:15 pm 12:15 Sunny 39 3.7 28 -2.1 66 66 W 12 19 30.28 1025 10 16 0.00 0.00
12:35 pm 12:35 Sunny 40 4.2 29 -1.6 66 66 WNW 9 15 30.27 1025 10 16 0.00 0.00
12:55 pm 12:55 Mostly Cloudy 40 4.6 29 -1.9 63 63 WNW 12 19 30.25 1024 10 16 0.00 0.00
1:15 pm 13:15 Mostly Cloudy 41 5.1 29 -1.6 62 62 W 8 13 30.25 1024 10 16 0.00 0.00
1:35 pm 13:35 Cloudy 42 5.4 29 -1.6 61 61 W 10 17 30.22 1024 10 16 0.00 0.00
1:55 pm 13:55 Cloudy 42 5.7 29 -1.6 60 60 W 13 20 30.22 1023 10 16 0.00 0.00
2:15 pm 14:15 Cloudy 42 5.3 29 -1.9 60 60 W 12 19 30.22 1023 10 16 0.00 0.00
2:35 pm 14:35 Mostly Cloudy 43 6.1 31 -0.7 62 62 WSW 15 24 30.21 1023 10 16 0.00 0.00
2:55 pm 14:55 Mostly Cloudy 42 5.5 31 -0.8 64 64 W 9 15 30.20 1023 10 16 0.00 0.00
3:15 pm 15:15 Mostly Cloudy 41 4.9 30 -1.1 65 65 NNW 5 7 30.21 1023 10 16 0.00 0.00
3:35 pm 15:35 Mostly Cloudy 42 5.8 28 -2.4 56 56 NNW 13 20 30.20 1023 10 16 0.00 0.00
3:55 pm 15:55 Mostly Cloudy 43 6.3 28 -2.4 54 54 WNW 13 20 30.20 1023 10 16 0.00 0.00
4:15 pm 16:15 Cloudy with Light Rain 39 3.8 31 -0.5 74 74 NW 14 22 30.22 1023 5 8 0.00 0.00
4:35 pm 16:35 Mostly Cloudy 40 4.6 33 0.4 74 74 N 15 24 30.21 1023 10 16 0.00 0.00
4:55 pm 16:55 Mostly Cloudy with Light Snow 38 3.6 34 0.9 83 83 NW 9 15 30.21 1023 10 16 0.00 0.00
5:15 pm 17:15 Cloudy 43 5.9 29 -1.7 59 59 WNW 16 26 30.19 1022 10 16 0.00 0.00
5:35 pm 17:35 Partly Cloudy 43 6.1 30 -1.3 59 59 W 14 22 30.18 1022 10 16 0.00 0.00
5:55 pm 17:55 Mostly Cloudy with Light Rain 40 4.2 30 -1.1 69 69 N 8 13 30.22 1023 7 11 0.00 0.00
6:15 pm 18:15 Cloudy with Light Rain 38 3.4 30 -1.1 73 73 WNW 10 17 30.22 1023 10 16 0.00 0.00
6:35 pm 18:35 Mostly Cloudy 39 3.9 32 -0.2 75 75 W 6 9 30.22 1023 10 16 0.00 0.00
6:55 pm 18:55 Partly Cloudy 42 5.4 26 -3.5 53 53 NW 14 22 30.20 1023 10 16 0.00 0.00
7:15 pm 19:15 Mostly Cloudy 41 5.1 27 -2.8 57 57 NW 14 22 30.21 1023 10 16 0.00 0.00
7:35 pm 19:35 Cloudy 42 5.4 27 -2.9 55 55 NNW 9 15 30.20 1023 10 16 0.00 0.00
7:55 pm 19:55 Cloudy 41 5 24 -4.2 52 52 NNW 12 19 30.22 1023 10 16 0.00 0.00
8:15 pm 20:15 Mostly Cloudy 40 4.3 25 -4 55 55 NW 10 17 30.23 1024 10 16 0.00 0.00
8:35 pm 20:35 Cloudy 39 4 26 -3.6 58 58 N 9 15 30.25 1024 10 16 0.00 0.00
8:55 pm 20:55 Partly Cloudy 38 3.2 25 -3.8 60 60 N 8 13 30.27 1025 10 16 0.00 0.00
9:15 pm 21:15 Clear 37 2.5 25 -4.1 62 62 NNW 6 9 30.27 1025 10 16 0.00 0.00
9:35 pm 21:35 Clear 35 1.5 24 -4.4 65 65 NNW 6 9 30.29 1026 10 16 0.00 0.00
9:55 pm 21:55 Clear 34 1.1 24 -4.6 66 66 NNW 6 9 30.31 1026 10 16 0.00 0.00
10:15 pm 22:15 Clear 33 0.3 24 -4.5 70 70 NW 6 9 30.32 1027 10 16 0.00 0.00
10:35 pm 22:35 Clear 32 -0.2 24 -4.4 74 74 NW 7 11 30.33 1027 10 16 0.00 0.00
10:55 pm 22:55 Clear 32 0 24 -4.7 71 71 NW 6 9 30.34 1027 10 16 0.00 0.00
11:15 pm 23:15 Clear 32 -0.1 24 -4.6 72 72 WNW 5 7 30.34 1027 10 16 0.00 0.00
11:35 pm 23:35 Clear 31 -0.5 24 -4.5 75 75 WNW 5 7 30.34 1027 10 16 0.00 0.00
11:55 pm 23:55 Clear 31 -0.6 24 -4.6 75 75 WNW 6 9 30.34 1027 10 16 0.00 0.00

Powered by AerisWeather